COSMOS 1275 DEB, 14557

Orbit data source: Space-Track

COSMOS 1275 DEB, 14557 is space debris in LEO originally from a launch on Thu, 04 Jun 1981 UTC launched from the Plesetsk Missile And Space Complex (PKMTR). Debris objects in space refer to the collection of defunct objects orbiting the Earth. Examples of debris include non-operational satellites, rocket bodies, and fragments generated from explosions, collisions, or faulty payload assembly.

Loading next visibility...
Identifier
14557, 1981-053JM
Orbit
LEO
Country
Flag of CISCIS
Related business
Manufacturer
Unknown
Mission
Spacecraft
Bus & Motor
Unknown
Mass
Unknown
Launch date (UTC)
1981-06-04 (45 years ago)
Launch vehicle
Unknown
Launch site
Plesetsk Missile And Space Complex (PKMTR)
Object type
Payload
Rocket body
Debris
Shape & HBR
Unknown shape, 0.1 m
Radar Cross Section
Small (<0.1 m²)

Expand to show TLE details & history
Last TLE update: 15 hours ago

TLE from 15 hours ago
0 COSMOS 1275 DEB
1 14557U 81053JM  26037.08725435  .00006854  00000-0  25801-2 0  9992
2 14557  82.7862  75.5764 0033772 294.0657  94.6181 14.31055189261067
Epoch: 2026-02-06T02:05Z
TLE epoch observation values (Epoch: 2026-02-06T02:05:38.775Z)
Latitude
28.86402°
Longitude
-88.08591°
Altitude
793.861 km
Speed
7.458 km/s
True Right ascension
05h 18m 13s
True Declination
28° 43' 11"
Sunlit
Object was in full shadow at epoch
Visualization orbit readout
Latitude
Unknown
Longitude
Unknown
Altitude
Unknown
Speed
Unknown
Apparent Right ascension
Unknown
Apparent Declination
Unknown
Sunlit
N/A
Visualization observer readout
Local Sidereal Time
18:54:50
Azimuth
Unknown
Elevation
Unknown
Doppler factor
Unknown
Orbital elements
Apogee altitude
809.476 km
Perigee altitude
761.091 km
Semi-major axis
7,163.421 km
Eccentricity
0.00338
Inclination
82.7862°
RAAN
75.5764°
Arg. of periapsis
294.0657°
True anomaly
95.00371°
Mean anomaly
94.6181°
Eccentric anomaly
94.81092°
Mean motion
3.57983 °/min
Orbital period
100.56 mins
BSTAR
0.0025801
Loading maneuver chart data...
Computing Atmospheric mass density...
Loading historical data...
Loading historical data...
Loading historical data...
Loading historical data...
Loading historical data...
Loading historical data...
Loading historical data...

Documentation

Showing up to 5 results
|